Time,TemperatureF,DewpointF,PressureIn,WindDirection,WindDirectionDegrees,WindSpeedMPH,WindSpeedGustMPH,Humidity,HourlyPrecipIn,Conditions,Clouds,dailyrainin,SolarRadiationWatts/m^2,SoftwareType,DateUTC
2013-10-06 00:00:00,65.9,62.6,30.11,SSE,158,0.0,0.0,89,0.00,,,0.00,0,Wunderground v.1.15,2013-10-06 04:00:00,
2013-10-06 00:05:00,65.9,62.6,30.11,SSE,158,0.0,0.0,89,0.00,,,0.00,0,Wunderground v.1.15,2013-10-06 04:05:00,
2013-10-06 00:14:00,65.8,62.5,30.11,SSE,158,0.0,0.0,89,0.00,,,0.00,0,Wunderground v.1.15,2013-10-06 04:14:00,
2013-10-06 00:20:00,65.7,62.4,30.11,SSE,158,0.0,0.0,89,0.00,,,0.00,0,Wunderground v.1.15,2013-10-06 04:20:00,
2013-10-06 00:25:00,65.7,62.4,30.11,SSE,158,0.0,0.0,89,0.00,,,0.00,0,Wunderground v.1.15,2013-10-06 04:25:00,
2013-10-06 00:30:00,65.7,62.4,30.11,SSE,157,0.0,0.0,89,0.00,,,0.00,0,Wunderground v.1.15,2013-10-06 04:30:00,
2013-10-06 00:35:00,65.6,62.3,30.11,SSE,157,0.0,0.0,89,0.00,,,0.00,0,Wunderground v.1.15,2013-10-06 04:35:00,
2013-10-06 00:40:00,65.6,61.9,30.11,SSE,157,0.0,0.0,88,0.00,,,0.00,0,Wunderground v.1.15,2013-10-06 04:40:00,
2013-10-06 00:44:00,65.6,62.3,30.11,SSE,157,0.0,0.0,89,0.00,,,0.00,0,Wunderground v.1.15,2013-10-06 04:44:00,
2013-10-06 00:50:00,65.6,62.3,30.10,SSE,157,0.0,0.0,89,0.00,,,0.00,0,Wunderground v.1.15,2013-10-06 04:50:00,
2013-10-06 00:55:00,65.6,62.3,30.10,SSE,157,0.0,0.0,89,0.00,,,0.00,0,Wunderground v.1.15,2013-10-06 04:55:00,
2013-10-06 01:00:00,65.5,62.2,30.10,SSE,157,0.0,0.0,89,0.00,,,0.00,0,Wunderground v.1.15,2013-10-06 05:00:00,
2013-10-06 01:05:00,65.5,62.2,30.10,SSE,157,0.0,0.0,89,0.00,,,0.00,0,Wunderground v.1.15,2013-10-06 05:05:00,
2013-10-06 01:10:00,65.4,62.1,30.10,SSE,157,0.0,0.0,89,0.00,,,0.00,0,Wunderground v.1.15,2013-10-06 05:10:00,
2013-10-06 01:15:00,65.4,62.1,30.10,SSE,157,0.0,1.0,89,0.00,,,0.00,0,Wunderground v.1.15,2013-10-06 05:15:00,
2013-10-06 01:20:00,65.4,62.1,30.10,SSE,157,0.0,0.0,89,0.00,,,0.00,0,Wunderground v.1.15,2013-10-06 05:20:00,
2013-10-06 01:25:00,65.4,62.1,30.10,SSE,157,0.0,0.0,89,0.00,,,0.00,0,Wunderground v.1.15,2013-10-06 05:25:00,
2013-10-06 01:30:00,65.4,62.1,30.10,SSE,157,0.0,0.0,89,0.00,,,0.00,0,Wunderground v.1.15,2013-10-06 05:30:00,
2013-10-06 01:35:00,65.3,61.7,30.09,SSE,157,0.0,0.0,88,0.00,,,0.00,0,Wunderground v.1.15,2013-10-06 05:35:00,
2013-10-06 01:40:00,65.4,62.1,30.09,SSE,157,0.0,0.0,89,0.00,,,0.00,0,Wunderground v.1.15,2013-10-06 05:40:00,
2013-10-06 01:45:00,65.3,62.0,30.09,SSE,157,0.0,0.0,89,0.00,,,0.00,0,Wunderground v.1.15,2013-10-06 05:45:00,
2013-10-06 01:50:00,65.3,61.7,30.09,SSE,157,0.0,0.0,88,0.00,,,0.00,0,Wunderground v.1.15,2013-10-06 05:50:00,
2013-10-06 01:55:00,65.3,62.0,30.09,SSE,157,0.0,0.0,89,0.00,,,0.00,0,Wunderground v.1.15,2013-10-06 05:55:00,
2013-10-06 02:00:00,65.2,61.6,30.09,SSE,157,0.0,0.0,88,0.00,,,0.00,0,Wunderground v.1.15,2013-10-06 06:00:00,
2013-10-06 02:04:00,65.2,61.6,30.09,SSE,157,0.0,0.0,88,0.00,,,0.00,0,Wunderground v.1.15,2013-10-06 06:04:00,
2013-10-06 02:09:00,65.2,61.6,30.09,SSE,157,0.0,0.0,88,0.00,,,0.00,0,Wunderground v.1.15,2013-10-06 06:09:00,
2013-10-06 02:15:00,65.1,61.5,30.09,SSE,157,0.0,0.0,88,0.00,,,0.00,0,Wunderground v.1.15,2013-10-06 06:15:00,
2013-10-06 02:20:00,65.0,61.4,30.09,SSE,157,0.0,1.0,88,0.00,,,0.00,0,Wunderground v.1.15,2013-10-06 06:20:00,
2013-10-06 02:25:00,65.1,61.5,30.08,SSE,158,0.0,1.0,88,0.00,,,0.00,0,Wunderground v.1.15,2013-10-06 06:25:00,
2013-10-06 02:30:00,65.0,61.4,30.08,SSE,158,0.0,0.0,88,0.00,,,0.00,0,Wunderground v.1.15,2013-10-06 06:30:00,
2013-10-06 02:35:00,65.0,61.4,30.08,SSE,158,0.0,0.0,88,0.00,,,0.00,0,Wunderground v.1.15,2013-10-06 06:35:00,
2013-10-06 02:40:00,65.0,61.4,30.08,SSE,158,0.0,0.0,88,0.00,,,0.00,0,Wunderground v.1.15,2013-10-06 06:40:00,
2013-10-06 02:45:00,65.0,61.4,30.08,SSE,157,0.0,0.0,88,0.00,,,0.00,0,Wunderground v.1.15,2013-10-06 06:45:00,
2013-10-06 02:50:00,65.0,61.4,30.08,SSE,157,0.0,0.0,88,0.00,,,0.00,0,Wunderground v.1.15,2013-10-06 06:50:00,
2013-10-06 02:55:00,65.0,61.4,30.08,SSE,160,0.0,0.0,88,0.00,,,0.00,0,Wunderground v.1.15,2013-10-06 06:55:00,
2013-10-06 03:00:00,65.1,61.5,30.07,SSE,156,0.0,0.0,88,0.00,,,0.00,0,Wunderground v.1.15,2013-10-06 07:00:00,
2013-10-06 03:05:00,65.1,61.5,30.07,SSE,157,0.0,0.0,88,0.00,,,0.00,0,Wunderground v.1.15,2013-10-06 07:05:00,
2013-10-06 03:10:00,65.1,61.5,30.07,SSE,157,0.0,0.0,88,0.00,,,0.00,0,Wunderground v.1.15,2013-10-06 07:10:00,
2013-10-06 03:15:00,65.1,61.5,30.07,SSE,156,0.0,0.0,88,0.00,,,0.00,0,Wunderground v.1.15,2013-10-06 07:15:00,
2013-10-06 03:20:00,65.0,61.4,30.07,SSE,156,0.0,0.0,88,0.00,,,0.00,0,Wunderground v.1.15,2013-10-06 07:20:00,
2013-10-06 03:25:00,65.0,61.4,30.07,SSE,157,0.0,0.0,88,0.00,,,0.00,0,Wunderground v.1.15,2013-10-06 07:25:00,
2013-10-06 03:30:00,64.9,61.3,30.07,SSE,157,0.0,0.0,88,0.00,,,0.00,0,Wunderground v.1.15,2013-10-06 07:30:00,
2013-10-06 03:35:00,64.9,61.3,30.06,SSE,157,0.0,0.0,88,0.00,,,0.00,0,Wunderground v.1.15,2013-10-06 07:35:00,
2013-10-06 03:40:00,64.9,61.3,30.06,SSE,156,0.0,0.0,88,0.00,,,0.00,0,Wunderground v.1.15,2013-10-06 07:40:00,
2013-10-06 03:44:00,64.8,61.2,30.06,SSE,157,0.0,1.0,88,0.00,,,0.00,0,Wunderground v.1.15,2013-10-06 07:44:00,
2013-10-06 03:50:00,64.8,61.2,30.06,SSE,157,0.0,0.0,88,0.00,,,0.00,0,Wunderground v.1.15,2013-10-06 07:50:00,
2013-10-06 04:00:00,64.7,61.4,30.06,SSE,157,0.0,0.0,89,0.00,,,0.00,0,Wunderground v.1.15,2013-10-06 08:00:00,
2013-10-06 04:05:00,64.7,61.4,30.06,SSE,157,0.0,0.0,89,0.00,,,0.00,0,Wunderground v.1.15,2013-10-06 08:05:00,
2013-10-06 04:10:00,64.6,61.3,30.06,SSE,157,0.0,0.0,89,0.00,,,0.00,0,Wunderground v.1.15,2013-10-06 08:10:00,
2013-10-06 04:19:00,64.5,61.2,30.06,ESE,103,0.0,0.0,89,0.00,,,0.00,0,Wunderground v.1.15,2013-10-06 08:19:00,
2013-10-06 04:25:00,64.5,61.2,30.06,ESE,103,0.0,0.0,89,0.00,,,0.00,0,Wunderground v.1.15,2013-10-06 08:25:00,
2013-10-06 04:30:00,64.5,61.2,30.06,ESE,103,0.0,0.0,89,0.00,,,0.00,0,Wunderground v.1.15,2013-10-06 08:30:00,
2013-10-06 04:35:00,64.5,61.2,30.05,ESE,102,0.0,0.0,89,0.00,,,0.00,0,Wunderground v.1.15,2013-10-06 08:35:00,
2013-10-06 04:40:00,64.5,61.2,30.06,ESE,103,0.0,0.0,89,0.00,,,0.00,0,Wunderground v.1.15,2013-10-06 08:40:00,
2013-10-06 04:50:00,64.4,60.8,30.05,ESE,103,0.0,0.0,88,0.00,,,0.00,0,Wunderground v.1.15,2013-10-06 08:50:00,
2013-10-06 04:55:00,64.4,61.1,30.05,ESE,103,0.0,0.0,89,0.00,,,0.00,0,Wunderground v.1.15,2013-10-06 08:55:00,
2013-10-06 05:00:00,64.4,61.1,30.05,ESE,103,0.0,0.0,89,0.00,,,0.00,0,Wunderground v.1.15,2013-10-06 09:00:00,
2013-10-06 05:10:00,64.4,60.8,30.05,ESE,119,0.0,0.0,88,0.00,,,0.00,0,Wunderground v.1.15,2013-10-06 09:10:00,
2013-10-06 05:15:00,64.4,61.1,30.05,ESE,119,0.0,0.0,89,0.00,,,0.00,0,Wunderground v.1.15,2013-10-06 09:15:00,
2013-10-06 05:25:00,64.4,60.8,30.05,South,176,0.0,0.0,88,0.00,,,0.00,0,Wunderground v.1.15,2013-10-06 09:25:00,
2013-10-06 05:30:00,64.3,60.7,30.05,South,176,0.0,0.0,88,0.00,,,0.00,0,Wunderground v.1.15,2013-10-06 09:30:00,
2013-10-06 05:35:00,64.3,61.0,30.05,South,175,0.0,0.0,89,0.00,,,0.00,0,Wunderground v.1.15,2013-10-06 09:35:00,
2013-10-06 05:40:00,64.3,61.0,30.05,South,173,0.0,0.0,89,0.00,,,0.00,0,Wunderground v.1.15,2013-10-06 09:40:00,
2013-10-06 05:45:00,64.3,61.0,30.06,South,173,0.0,0.0,89,0.00,,,0.00,0,Wunderground v.1.15,2013-10-06 09:45:00,
2013-10-06 05:50:00,64.2,60.9,30.05,South,173,0.0,0.0,89,0.00,,,0.00,0,Wunderground v.1.15,2013-10-06 09:50:00,
2013-10-06 05:55:00,64.2,60.9,30.06,South,173,0.0,0.0,89,0.00,,,0.00,0,Wunderground v.1.15,2013-10-06 09:55:00,
2013-10-06 06:05:00,64.1,61.1,30.06,South,173,0.0,0.0,90,0.00,,,0.00,0,Wunderground v.1.15,2013-10-06 10:05:00,
2013-10-06 06:10:00,64.0,61.0,30.06,South,173,0.0,0.0,90,0.00,,,0.00,0,Wunderground v.1.15,2013-10-06 10:10:00,
2013-10-06 06:15:00,63.9,60.9,30.06,South,173,0.0,0.0,90,0.00,,,0.00,0,Wunderground v.1.15,2013-10-06 10:15:00,
2013-10-06 06:20:00,63.8,60.8,30.06,South,173,0.0,0.0,90,0.00,,,0.00,0,Wunderground v.1.15,2013-10-06 10:20:00,
2013-10-06 06:25:00,63.7,61.0,30.06,South,173,0.0,0.0,91,0.00,,,0.00,0,Wunderground v.1.15,2013-10-06 10:25:00,
2013-10-06 06:29:00,63.6,60.9,30.06,South,173,0.0,0.0,91,0.00,,,0.00,0,Wunderground v.1.15,2013-10-06 10:29:00,
2013-10-06 06:35:00,63.5,60.8,30.07,South,173,0.0,0.0,91,0.00,,,0.00,0,Wunderground v.1.15,2013-10-06 10:35:00,
2013-10-06 06:40:00,63.4,60.7,30.06,South,173,0.0,0.0,91,0.00,,,0.00,0,Wunderground v.1.15,2013-10-06 10:40:00,
2013-10-06 06:44:00,63.2,60.8,30.07,South,173,0.0,0.0,92,0.00,,,0.00,0,Wunderground v.1.15,2013-10-06 10:44:00,
2013-10-06 06:49:00,63.2,60.8,30.07,South,173,0.0,0.0,92,0.00,,,0.00,0,Wunderground v.1.15,2013-10-06 10:49:00,
2013-10-06 06:55:00,63.1,60.7,30.07,South,173,0.0,0.0,92,0.00,,,0.00,0,Wunderground v.1.15,2013-10-06 10:55:00,
2013-10-06 07:00:00,63.0,60.6,30.07,South,173,0.0,0.0,92,0.00,,,0.00,0,Wunderground v.1.15,2013-10-06 11:00:00,
2013-10-06 07:05:00,63.0,60.6,30.07,South,173,0.0,0.0,92,0.00,,,0.00,0,Wunderground v.1.15,2013-10-06 11:05:00,
2013-10-06 07:10:00,62.9,60.8,30.07,South,173,0.0,0.0,93,0.00,,,0.00,0,Wunderground v.1.15,2013-10-06 11:10:00,
2013-10-06 07:15:00,62.8,60.7,30.07,South,173,0.0,0.0,93,0.00,,,0.00,0,Wunderground v.1.15,2013-10-06 11:15:00,
2013-10-06 07:19:00,62.7,60.6,30.07,South,173,0.0,0.0,93,0.00,,,0.00,0,Wunderground v.1.15,2013-10-06 11:19:00,
2013-10-06 07:25:00,62.7,60.6,30.07,South,173,0.0,0.0,93,0.00,,,0.00,0,Wunderground v.1.15,2013-10-06 11:25:00,
2013-10-06 07:30:00,62.6,60.5,30.07,South,173,0.0,0.0,93,0.00,,,0.00,0,Wunderground v.1.15,2013-10-06 11:30:00,
2013-10-06 07:35:00,62.5,60.7,30.07,South,173,0.0,0.0,94,0.00,,,0.00,0,Wunderground v.1.15,2013-10-06 11:35:00,
2013-10-06 07:40:00,62.5,60.7,30.07,South,173,0.0,0.0,94,0.00,,,0.00,5,Wunderground v.1.15,2013-10-06 11:40:00,
2013-10-06 07:50:00,62.4,60.7,30.07,South,173,0.0,0.0,94,0.00,,,0.00,7,Wunderground v.1.15,2013-10-06 11:50:00,
2013-10-06 07:55:00,62.3,60.6,30.07,South,173,0.0,0.0,94,0.00,,,0.00,9,Wunderground v.1.15,2013-10-06 11:55:00,
2013-10-06 08:00:00,62.3,60.6,30.07,South,173,0.0,0.0,94,0.00,,,0.00,11,Wunderground v.1.15,2013-10-06 12:00:00,
2013-10-06 08:05:00,62.3,60.6,30.07,South,173,0.0,0.0,94,0.00,,,0.00,11,Wunderground v.1.15,2013-10-06 12:05:00,
2013-10-06 08:10:00,62.3,60.6,30.07,South,173,0.0,0.0,94,0.00,,,0.00,11,Wunderground v.1.15,2013-10-06 12:10:00,
2013-10-06 08:15:00,62.3,60.6,30.07,South,173,0.0,0.0,94,0.00,,,0.00,12,Wunderground v.1.15,2013-10-06 12:15:00,
2013-10-06 08:20:00,62.4,60.7,30.08,South,173,0.0,0.0,94,0.00,,,0.00,12,Wunderground v.1.15,2013-10-06 12:20:00,
2013-10-06 08:25:00,62.4,60.3,30.08,South,173,0.0,0.0,93,0.00,,,0.00,14,Wunderground v.1.15,2013-10-06 12:25:00,
2013-10-06 08:30:00,62.5,60.4,30.08,South,173,0.0,0.0,93,0.00,,,0.00,16,Wunderground v.1.15,2013-10-06 12:30:00,
2013-10-06 08:40:00,62.7,60.6,30.08,South,173,0.0,0.0,93,0.00,,,0.00,26,Wunderground v.1.15,2013-10-06 12:40:00,
2013-10-06 08:45:00,62.8,60.7,30.08,South,173,0.0,0.0,93,0.00,,,0.00,39,Wunderground v.1.15,2013-10-06 12:45:00,
2013-10-06 08:50:00,62.9,60.5,30.08,South,175,0.0,0.0,92,0.00,,,0.00,44,Wunderground v.1.15,2013-10-06 12:50:00,
2013-10-06 08:55:00,63.0,60.6,30.08,South,175,0.0,0.0,92,0.00,,,0.00,25,Wunderground v.1.15,2013-10-06 12:55:00,
2013-10-06 09:00:00,63.2,60.8,30.08,South,175,0.0,0.0,92,0.00,,,0.00,21,Wunderground v.1.15,2013-10-06 13:00:00,
2013-10-06 09:05:00,63.3,60.9,30.08,South,175,0.0,0.0,92,0.00,,,0.00,21,Wunderground v.1.15,2013-10-06 13:05:00,
2013-10-06 09:10:00,63.4,61.0,30.08,South,175,0.0,0.0,92,0.00,,,0.00,21,Wunderground v.1.15,2013-10-06 13:10:00,
2013-10-06 09:15:00,63.5,61.1,30.08,South,175,0.0,0.0,92,0.00,,,0.00,21,Wunderground v.1.15,2013-10-06 13:15:00,
2013-10-06 09:20:00,63.6,61.2,30.08,South,175,0.0,0.0,92,0.00,,,0.00,23,Wunderground v.1.15,2013-10-06 13:20:00,
2013-10-06 09:25:00,63.6,61.2,30.08,South,175,0.0,0.0,92,0.00,,,0.00,23,Wunderground v.1.15,2013-10-06 13:25:00,
2013-10-06 09:30:00,63.7,61.3,30.08,South,175,0.0,0.0,92,0.00,,,0.00,25,Wunderground v.1.15,2013-10-06 13:30:00,
2013-10-06 09:35:00,63.7,61.6,30.08,South,175,0.0,0.0,93,0.00,,,0.00,25,Wunderground v.1.15,2013-10-06 13:35:00,
2013-10-06 09:40:00,63.8,61.7,30.08,South,175,0.0,0.0,93,0.00,,,0.00,26,Wunderground v.1.15,2013-10-06 13:40:00,
2013-10-06 09:45:00,63.8,61.7,30.08,South,175,0.0,0.0,93,0.00,,,0.00,28,Wunderground v.1.15,2013-10-06 13:45:00,
2013-10-06 09:50:00,63.8,61.7,30.08,South,175,0.0,0.0,93,0.00,,,0.00,30,Wunderground v.1.15,2013-10-06 13:50:00,
2013-10-06 09:55:00,63.9,61.8,30.08,South,175,0.0,0.0,93,0.00,,,0.00,35,Wunderground v.1.15,2013-10-06 13:55:00,
2013-10-06 10:00:00,64.0,61.9,30.08,South,175,0.0,0.0,93,0.00,,,0.00,54,Wunderground v.1.15,2013-10-06 14:00:00,
2013-10-06 10:05:00,64.1,62.0,30.08,South,182,0.0,0.0,93,0.00,,,0.00,35,Wunderground v.1.15,2013-10-06 14:05:00,
2013-10-06 10:10:00,64.2,62.1,30.08,South,182,0.0,0.0,93,0.00,,,0.00,39,Wunderground v.1.15,2013-10-06 14:10:00,
2013-10-06 10:15:00,64.3,61.9,30.08,South,182,0.0,0.0,92,0.00,,,0.00,35,Wunderground v.1.15,2013-10-06 14:15:00,
2013-10-06 10:20:00,64.5,62.1,30.08,SW,219,0.0,0.0,92,0.00,,,0.00,37,Wunderground v.1.15,2013-10-06 14:20:00,
2013-10-06 10:25:00,64.6,62.2,30.08,SW,218,0.0,0.0,92,0.00,,,0.00,39,Wunderground v.1.15,2013-10-06 14:25:00,
2013-10-06 10:29:00,64.7,62.0,30.08,SW,219,0.0,0.0,91,0.00,,,0.00,40,Wunderground v.1.15,2013-10-06 14:29:00,
2013-10-06 10:35:00,64.9,62.2,30.08,WSW,238,0.0,0.0,91,0.00,,,0.00,44,Wunderground v.1.15,2013-10-06 14:35:00,
2013-10-06 10:40:00,65.0,62.6,30.08,WSW,238,0.0,0.0,92,0.00,,,0.00,56,Wunderground v.1.15,2013-10-06 14:40:00,
2013-10-06 10:44:00,65.2,62.5,30.07,WSW,238,0.0,0.0,91,0.00,,,0.00,53,Wunderground v.1.15,2013-10-06 14:44:00,
2013-10-06 10:49:00,65.4,62.7,30.07,WSW,245,0.0,3.0,91,0.00,,,0.00,51,Wunderground v.1.15,2013-10-06 14:49:00,
2013-10-06 10:55:00,65.7,63.0,30.07,West,267,1.0,3.0,91,0.00,,,0.00,53,Wunderground v.1.15,2013-10-06 14:55:00,
2013-10-06 11:00:00,65.9,62.9,30.08,West,269,1.0,1.0,90,0.00,,,0.00,54,Wunderground v.1.15,2013-10-06 15:00:00,
2013-10-06 11:04:00,66.0,63.3,30.08,West,270,1.0,1.0,91,0.00,,,0.00,56,Wunderground v.1.15,2013-10-06 15:04:00,
2013-10-06 11:09:00,66.1,63.1,30.07,West,270,0.0,0.0,90,0.00,,,0.00,56,Wunderground v.1.15,2013-10-06 15:09:00,
2013-10-06 11:15:00,66.2,63.2,30.07,WSW,257,0.0,0.0,90,0.00,,,0.00,58,Wunderground v.1.15,2013-10-06 15:15:00,
2013-10-06 11:20:00,66.4,63.4,30.07,WSW,258,0.0,0.0,90,0.00,,,0.00,60,Wunderground v.1.15,2013-10-06 15:20:00,
2013-10-06 11:24:00,66.5,63.5,30.07,SW,225,0.0,3.0,90,0.00,,,0.00,63,Wunderground v.1.15,2013-10-06 15:24:00,
2013-10-06 11:29:00,66.7,63.7,30.07,WNW,292,1.0,1.0,90,0.00,,,0.00,84,Wunderground v.1.15,2013-10-06 15:29:00,
2013-10-06 11:35:00,66.9,63.9,30.07,WNW,295,1.0,1.0,90,0.00,,,0.00,67,Wunderground v.1.15,2013-10-06 15:35:00,
2013-10-06 11:40:00,67.2,63.8,30.07,West,275,1.0,1.0,89,0.00,,,0.00,69,Wunderground v.1.15,2013-10-06 15:40:00,
2013-10-06 11:45:00,67.3,63.6,30.06,West,275,0.0,1.0,88,0.00,,,0.00,72,Wunderground v.1.15,2013-10-06 15:45:00,
2013-10-06 11:50:00,67.6,63.9,30.07,NW,316,1.0,1.0,88,0.00,,,0.00,72,Wunderground v.1.15,2013-10-06 15:50:00,
2013-10-06 11:55:00,67.8,64.1,30.06,West,275,1.0,1.0,88,0.00,,,0.00,81,Wunderground v.1.15,2013-10-06 15:55:00,
2013-10-06 12:00:00,68.1,64.4,30.06,SW,215,1.0,1.0,88,0.00,,,0.00,98,Wunderground v.1.15,2013-10-06 16:00:00,
2013-10-06 12:05:00,68.3,64.3,30.06,WSW,239,1.0,1.0,87,0.00,,,0.00,135,Wunderground v.1.15,2013-10-06 16:05:00,
2013-10-06 12:10:00,68.6,64.6,30.06,WSW,238,0.0,0.0,87,0.00,,,0.00,232,Wunderground v.1.15,2013-10-06 16:10:00,
2013-10-06 12:15:00,68.8,64.8,30.06,WSW,254,0.0,0.0,87,0.00,,,0.00,195,Wunderground v.1.15,2013-10-06 16:15:00,
2013-10-06 12:19:00,69.2,64.5,30.06,West,271,1.0,1.0,85,0.00,,,0.00,243,Wunderground v.1.15,2013-10-06 16:19:00,
2013-10-06 12:25:00,69.6,64.9,30.06,WSW,242,1.0,1.0,85,0.00,,,0.00,142,Wunderground v.1.15,2013-10-06 16:25:00,
2013-10-06 12:30:00,69.7,64.6,30.05,SE,138,1.0,1.0,84,0.00,,,0.00,185,Wunderground v.1.15,2013-10-06 16:30:00,
2013-10-06 12:34:00,69.9,65.2,30.05,SW,230,0.0,1.0,85,0.00,,,0.00,232,Wunderground v.1.15,2013-10-06 16:34:00,
2013-10-06 12:40:00,70.2,64.8,30.05,West,276,1.0,1.0,83,0.00,,,0.00,188,Wunderground v.1.15,2013-10-06 16:40:00,
2013-10-06 12:45:00,70.3,64.9,30.05,WNW,302,1.0,1.0,83,0.00,,,0.00,155,Wunderground v.1.15,2013-10-06 16:45:00,
2013-10-06 12:50:00,70.3,64.5,30.05,NW,319,1.0,5.0,82,0.00,,,0.00,169,Wunderground v.1.15,2013-10-06 16:50:00,
2013-10-06 12:55:00,70.4,65.0,30.05,NW,323,1.0,5.0,83,0.00,,,0.00,214,Wunderground v.1.15,2013-10-06 16:55:00,
2013-10-06 13:00:00,70.6,65.2,30.04,SW,231,0.0,0.0,83,0.00,,,0.00,211,Wunderground v.1.15,2013-10-06 17:00:00,
2013-10-06 13:04:00,70.7,64.9,30.04,ENE,65,1.0,1.0,82,0.00,,,0.00,165,Wunderground v.1.15,2013-10-06 17:04:00,
2013-10-06 13:10:00,71.0,65.2,30.04,ENE,61,1.0,1.0,82,0.00,,,0.00,237,Wunderground v.1.15,2013-10-06 17:10:00,
2013-10-06 13:20:00,71.5,64.6,30.04,SW,224,1.0,1.0,79,0.00,,,0.00,185,Wunderground v.1.15,2013-10-06 17:20:00,
2013-10-06 13:25:00,71.7,64.5,30.03,SW,223,1.0,1.0,78,0.00,,,0.00,223,Wunderground v.1.15,2013-10-06 17:25:00,
2013-10-06 13:35:00,72.1,65.6,30.03,West,275,1.0,3.0,80,0.00,,,0.00,772,Wunderground v.1.15,2013-10-06 17:35:00,
2013-10-06 13:40:00,72.5,65.2,30.03,West,262,1.0,1.0,78,0.00,,,0.00,171,Wunderground v.1.15,2013-10-06 17:40:00,
2013-10-06 13:50:00,73.0,65.7,30.02,South,176,1.0,6.0,78,0.00,,,0.00,870,Wunderground v.1.15,2013-10-06 17:50:00,
2013-10-06 13:55:00,73.4,64.6,30.02,SW,229,1.0,6.0,74,0.00,,,0.00,320,Wunderground v.1.15,2013-10-06 17:55:00,
2013-10-06 14:00:00,73.4,64.6,30.02,SSW,208,1.0,2.0,74,0.00,,,0.00,197,Wunderground v.1.15,2013-10-06 18:00:00,
2013-10-06 14:10:00,73.6,64.4,30.01,WNW,290,1.0,1.0,73,0.00,,,0.00,250,Wunderground v.1.15,2013-10-06 18:10:00,
2013-10-06 14:15:00,74.0,64.4,30.01,WSW,244,2.0,2.0,72,0.00,,,0.00,856,Wunderground v.1.15,2013-10-06 18:15:00,
2013-10-06 14:20:00,74.0,64.4,30.01,WNW,286,1.0,1.0,72,0.00,,,0.00,135,Wunderground v.1.15,2013-10-06 18:20:00,
2013-10-06 14:25:00,73.8,64.2,30.01,West,279,0.0,1.0,72,0.00,,,0.00,151,Wunderground v.1.15,2013-10-06 18:25:00,
2013-10-06 14:30:00,73.7,65.3,30.01,West,273,0.0,0.0,75,0.00,,,0.00,192,Wunderground v.1.15,2013-10-06 18:30:00,
2013-10-06 14:34:00,73.8,65.4,30.01,West,273,0.0,0.0,75,0.00,,,0.00,120,Wunderground v.1.15,2013-10-06 18:34:00,
2013-10-06 14:40:00,73.5,64.7,30.00,West,267,1.0,2.0,74,0.00,,,0.00,838,Wunderground v.1.15,2013-10-06 18:40:00,
2013-10-06 14:45:00,73.5,65.1,30.00,South,172,1.0,2.0,75,0.00,,,0.00,218,Wunderground v.1.15,2013-10-06 18:45:00,
2013-10-06 14:50:00,73.5,65.1,30.00,West,281,1.0,2.0,75,0.00,,,0.00,359,Wunderground v.1.15,2013-10-06 18:50:00,
2013-10-06 14:55:00,73.5,65.1,30.00,WNW,300,1.0,2.0,75,0.00,,,0.00,118,Wunderground v.1.15,2013-10-06 18:55:00,
2013-10-06 15:00:00,73.6,65.2,30.00,WSW,244,0.0,4.0,75,0.00,,,0.00,206,Wunderground v.1.15,2013-10-06 19:00:00,
2013-10-06 15:10:00,73.7,65.3,29.99,WNW,300,1.0,2.0,75,0.00,,,0.00,81,Wunderground v.1.15,2013-10-06 19:10:00,
2013-10-06 15:15:00,73.6,65.2,29.99,WNW,301,0.0,2.0,75,0.00,,,0.00,127,Wunderground v.1.15,2013-10-06 19:15:00,
2013-10-06 15:20:00,73.5,65.5,29.99,WNW,300,0.0,0.0,76,0.00,,,0.00,740,Wunderground v.1.15,2013-10-06 19:20:00,
2013-10-06 15:24:00,73.5,65.5,29.99,WNW,298,0.0,1.0,76,0.00,,,0.00,114,Wunderground v.1.15,2013-10-06 19:24:00,
2013-10-06 15:30:00,73.3,64.9,29.99,West,278,0.0,0.0,75,0.00,,,0.00,90,Wunderground v.1.15,2013-10-06 19:30:00,
2013-10-06 15:35:00,73.0,64.6,29.99,WNW,282,0.0,0.0,75,0.00,,,0.00,137,Wunderground v.1.15,2013-10-06 19:35:00,
2013-10-06 15:40:00,73.0,65.7,29.98,WNW,291,1.0,2.0,78,0.00,,,0.00,148,Wunderground v.1.15,2013-10-06 19:40:00,
2013-10-06 15:45:00,73.0,65.4,29.98,WNW,291,0.0,2.0,77,0.00,,,0.00,127,Wunderground v.1.15,2013-10-06 19:45:00,
2013-10-06 15:50:00,72.8,64.8,29.98,West,277,0.0,0.0,76,0.00,,,0.00,111,Wunderground v.1.15,2013-10-06 19:50:00,
2013-10-06 15:54:00,72.6,64.6,29.98,West,276,1.0,1.0,76,0.00,,,0.00,139,Wunderground v.1.15,2013-10-06 19:54:00,
2013-10-06 16:00:00,72.3,64.7,29.98,West,277,0.0,0.0,77,0.00,,,0.00,111,Wunderground v.1.15,2013-10-06 20:00:00,
2013-10-06 16:05:00,72.0,64.8,29.98,West,276,0.0,0.0,78,0.00,,,0.00,146,Wunderground v.1.15,2013-10-06 20:05:00,
2013-10-06 16:10:00,71.9,64.7,29.98,WSW,257,1.0,1.0,78,0.00,,,0.00,141,Wunderground v.1.15,2013-10-06 20:10:00,
2013-10-06 16:14:00,71.9,65.0,29.99,West,266,1.0,1.0,79,0.00,,,0.00,134,Wunderground v.1.15,2013-10-06 20:14:00,
2013-10-06 16:19:00,71.8,64.6,29.99,WNW,284,0.0,4.0,78,0.00,,,0.00,97,Wunderground v.1.15,2013-10-06 20:19:00,
2013-10-06 16:25:00,71.6,64.0,29.98,WNW,302,1.0,4.0,77,0.00,,,0.00,100,Wunderground v.1.15,2013-10-06 20:25:00,
2013-10-06 16:30:00,71.5,64.3,29.98,WNW,302,1.0,1.0,78,0.00,,,0.00,223,Wunderground v.1.15,2013-10-06 20:30:00,
2013-10-06 16:35:00,71.5,64.3,29.98,WNW,287,1.0,1.0,78,0.00,,,0.00,329,Wunderground v.1.15,2013-10-06 20:35:00,
2013-10-06 16:40:00,71.7,64.5,29.97,West,279,1.0,2.0,78,0.00,,,0.00,232,Wunderground v.1.15,2013-10-06 20:40:00,
2013-10-06 16:45:00,72.1,65.2,29.98,West,278,0.0,2.0,79,0.00,,,0.00,127,Wunderground v.1.15,2013-10-06 20:45:00,
2013-10-06 16:50:00,72.5,65.2,29.97,WNW,299,0.0,0.0,78,0.00,,,0.00,541,Wunderground v.1.15,2013-10-06 20:50:00,
2013-10-06 17:00:00,73.6,65.9,29.97,WSW,240,1.0,1.0,77,0.00,,,0.00,394,Wunderground v.1.15,2013-10-06 21:00:00,
2013-10-06 17:05:00,74.0,65.6,29.97,WSW,242,1.0,1.0,75,0.00,,,0.00,366,Wunderground v.1.15,2013-10-06 21:05:00,
2013-10-06 17:10:00,74.3,65.5,29.97,West,268,1.0,2.0,74,0.00,,,0.00,383,Wunderground v.1.15,2013-10-06 21:10:00,
2013-10-06 17:14:00,74.3,65.5,29.97,West,268,1.0,2.0,74,0.00,,,0.00,334,Wunderground v.1.15,2013-10-06 21:14:00,
2013-10-06 17:19:00,74.2,65.0,29.97,West,269,1.0,1.0,73,0.00,,,0.00,371,Wunderground v.1.15,2013-10-06 21:19:00,
2013-10-06 17:25:00,74.1,64.9,29.97,SSW,211,1.0,1.0,73,0.00,,,0.00,315,Wunderground v.1.15,2013-10-06 21:25:00,
2013-10-06 17:30:00,74.0,65.2,29.97,WSW,246,1.0,1.0,74,0.00,,,0.00,72,Wunderground v.1.15,2013-10-06 21:30:00,
2013-10-06 17:35:00,73.6,64.4,29.97,SW,236,1.0,1.0,73,0.00,,,0.00,49,Wunderground v.1.15,2013-10-06 21:35:00,
2013-10-06 17:40:00,73.0,64.2,29.97,West,276,0.0,1.0,74,0.00,,,0.00,53,Wunderground v.1.15,2013-10-06 21:40:00,
2013-10-06 17:44:00,72.5,64.1,29.97,West,276,0.0,1.0,75,0.00,,,0.00,32,Wunderground v.1.15,2013-10-06 21:44:00,
2013-10-06 17:49:00,72.1,64.1,29.97,West,276,0.0,0.0,76,0.00,,,0.00,35,Wunderground v.1.15,2013-10-06 21:49:00,
2013-10-06 17:55:00,71.6,64.0,29.97,West,276,0.0,2.0,77,0.00,,,0.00,25,Wunderground v.1.15,2013-10-06 21:55:00,
2013-10-06 18:00:00,71.2,64.0,29.97,West,276,0.0,1.0,78,0.00,,,0.00,28,Wunderground v.1.15,2013-10-06 22:00:00,
2013-10-06 18:10:00,70.3,63.8,29.97,WNW,284,0.0,0.0,80,0.00,,,0.00,79,Wunderground v.1.15,2013-10-06 22:10:00,
2013-10-06 18:14:00,70.0,63.9,29.97,WNW,284,0.0,0.0,81,0.00,,,0.00,37,Wunderground v.1.15,2013-10-06 22:14:00,
2013-10-06 18:19:00,69.7,63.6,29.97,WNW,283,0.0,0.0,81,0.00,,,0.00,37,Wunderground v.1.15,2013-10-06 22:19:00,
2013-10-06 18:25:00,69.5,63.8,29.97,WNW,283,0.0,0.0,82,0.00,,,0.00,16,Wunderground v.1.15,2013-10-06 22:25:00,
2013-10-06 18:30:00,69.3,63.6,29.97,WNW,283,0.0,0.0,82,0.00,,,0.00,14,Wunderground v.1.15,2013-10-06 22:30:00,
2013-10-06 18:35:00,69.0,63.3,29.97,WNW,284,0.0,0.0,82,0.00,,,0.00,5,Wunderground v.1.15,2013-10-06 22:35:00,
2013-10-06 18:40:00,68.8,63.1,29.97,WNW,284,0.0,0.0,82,0.00,,,0.00,0,Wunderground v.1.15,2013-10-06 22:40:00,
2013-10-06 18:45:00,68.5,63.5,29.97,WNW,284,0.0,0.0,84,0.00,,,0.00,0,Wunderground v.1.15,2013-10-06 22:45:00,
2013-10-06 18:49:00,68.3,63.3,29.98,WNW,284,0.0,0.0,84,0.00,,,0.00,0,Wunderground v.1.15,2013-10-06 22:49:00,
2013-10-06 18:55:00,68.0,63.0,29.98,WNW,284,0.0,0.0,84,0.00,,,0.00,0,Wunderground v.1.15,2013-10-06 22:55:00,
2013-10-06 19:00:00,67.7,63.0,29.98,WNW,283,0.0,0.0,85,0.00,,,0.00,0,Wunderground v.1.15,2013-10-06 23:00:00,
2013-10-06 19:05:00,67.4,62.7,29.98,WNW,284,0.0,0.0,85,0.00,,,0.00,0,Wunderground v.1.15,2013-10-06 23:05:00,
2013-10-06 19:10:00,67.2,62.5,29.98,WNW,284,0.0,0.0,85,0.00,,,0.00,0,Wunderground v.1.15,2013-10-06 23:10:00,
2013-10-06 19:15:00,67.0,62.7,29.98,WNW,283,0.0,0.0,86,0.00,,,0.00,0,Wunderground v.1.15,2013-10-06 23:15:00,
2013-10-06 19:20:00,66.8,62.5,29.98,WNW,284,0.0,0.0,86,0.00,,,0.00,0,Wunderground v.1.15,2013-10-06 23:20:00,
2013-10-06 19:25:00,66.6,62.3,29.98,WNW,284,0.0,0.0,86,0.00,,,0.00,0,Wunderground v.1.15,2013-10-06 23:25:00,
2013-10-06 19:30:00,66.4,62.1,29.98,WNW,284,0.0,0.0,86,0.00,,,0.00,0,Wunderground v.1.15,2013-10-06 23:30:00,
2013-10-06 19:35:00,66.2,61.9,29.98,WNW,284,0.0,0.0,86,0.00,,,0.00,0,Wunderground v.1.15,2013-10-06 23:35:00,
2013-10-06 19:40:00,66.0,61.7,29.98,WNW,284,0.0,0.0,86,0.00,,,0.00,0,Wunderground v.1.15,2013-10-06 23:40:00,
2013-10-06 19:45:00,65.9,61.9,29.98,WNW,284,0.0,0.0,87,0.00,,,0.00,0,Wunderground v.1.15,2013-10-06 23:45:00,
2013-10-06 19:50:00,65.7,61.7,29.98,WNW,285,0.0,0.0,87,0.00,,,0.00,0,Wunderground v.1.15,2013-10-06 23:50:00,
2013-10-06 19:54:00,65.5,61.5,29.98,WNW,284,0.0,0.0,87,0.00,,,0.00,0,Wunderground v.1.15,2013-10-06 23:54:00,
2013-10-06 20:00:00,65.3,61.7,29.98,WNW,284,0.0,0.0,88,0.00,,,0.00,0,Wunderground v.1.15,2013-10-07 00:00:00,
2013-10-06 20:05:00,65.1,61.5,29.98,WNW,284,0.0,0.0,88,0.00,,,0.00,0,Wunderground v.1.15,2013-10-07 00:05:00,
2013-10-06 20:10:00,64.9,61.3,29.98,WNW,285,0.0,0.0,88,0.00,,,0.00,0,Wunderground v.1.15,2013-10-07 00:10:00,
2013-10-06 20:15:00,64.7,61.1,29.98,WNW,285,0.0,0.0,88,0.00,,,0.00,0,Wunderground v.1.15,2013-10-07 00:15:00,
2013-10-06 20:20:00,64.5,61.2,29.98,WNW,285,0.0,0.0,89,0.00,,,0.00,0,Wunderground v.1.15,2013-10-07 00:20:00,
2013-10-06 20:25:00,64.4,61.1,29.98,WNW,284,0.0,0.0,89,0.00,,,0.00,0,Wunderground v.1.15,2013-10-07 00:25:00,
2013-10-06 20:30:00,64.3,61.0,29.98,WNW,285,0.0,0.0,89,0.00,,,0.00,0,Wunderground v.1.15,2013-10-07 00:30:00,
2013-10-06 20:35:00,64.1,60.8,29.98,WNW,284,0.0,0.0,89,0.00,,,0.00,0,Wunderground v.1.15,2013-10-07 00:35:00,
2013-10-06 20:40:00,64.0,60.7,29.98,WNW,284,0.0,0.0,89,0.00,,,0.00,0,Wunderground v.1.15,2013-10-07 00:40:00,
2013-10-06 20:44:00,63.9,60.6,29.98,WNW,284,0.0,0.0,89,0.00,,,0.00,0,Wunderground v.1.15,2013-10-07 00:44:00,
2013-10-06 20:49:00,63.9,60.9,29.98,WNW,284,0.0,0.0,90,0.00,,,0.00,0,Wunderground v.1.15,2013-10-07 00:49:00,
2013-10-06 20:55:00,63.8,60.8,29.98,WNW,284,0.0,0.0,90,0.00,,,0.00,0,Wunderground v.1.15,2013-10-07 00:55:00,
2013-10-06 21:00:00,63.7,60.7,29.98,WNW,284,0.0,0.0,90,0.00,,,0.00,0,Wunderground v.1.15,2013-10-07 01:00:00,
2013-10-06 21:04:00,63.7,60.7,29.98,WNW,284,0.0,0.0,90,0.00,,,0.00,0,Wunderground v.1.15,2013-10-07 01:04:00,
2013-10-06 21:09:00,63.6,60.6,29.97,WNW,284,0.0,0.0,90,0.00,,,0.00,0,Wunderground v.1.15,2013-10-07 01:09:00,
2013-10-06 21:15:00,63.6,60.6,29.97,WNW,284,0.0,0.0,90,0.00,,,0.00,0,Wunderground v.1.15,2013-10-07 01:15:00,
2013-10-06 21:20:00,63.5,60.5,29.97,WNW,284,0.0,0.0,90,0.00,,,0.00,0,Wunderground v.1.15,2013-10-07 01:20:00,
2013-10-06 21:25:00,63.4,60.4,29.97,WNW,284,0.0,0.0,90,0.00,,,0.00,0,Wunderground v.1.15,2013-10-07 01:25:00,
2013-10-06 21:30:00,63.4,60.7,29.97,WNW,284,0.0,0.0,91,0.00,,,0.00,0,Wunderground v.1.15,2013-10-07 01:30:00,
2013-10-06 21:34:00,63.3,60.9,29.98,WNW,284,0.0,0.0,92,0.00,,,0.00,0,Wunderground v.1.15,2013-10-07 01:34:00,
2013-10-06 21:39:00,63.3,60.6,29.97,WNW,284,0.0,0.0,91,0.00,,,0.00,0,Wunderground v.1.15,2013-10-07 01:39:00,
2013-10-06 21:45:00,63.3,60.6,29.98,WNW,284,0.0,0.0,91,0.00,,,0.00,0,Wunderground v.1.15,2013-10-07 01:45:00,
2013-10-06 21:50:00,63.3,60.6,29.98,WNW,284,0.0,0.0,91,0.00,,,0.00,0,Wunderground v.1.15,2013-10-07 01:50:00,
2013-10-06 21:55:00,63.4,60.7,29.98,WNW,285,0.0,0.0,91,0.00,,,0.00,0,Wunderground v.1.15,2013-10-07 01:55:00,
2013-10-06 22:00:00,63.4,60.7,29.98,WNW,284,0.0,0.0,91,0.00,,,0.00,0,Wunderground v.1.15,2013-10-07 02:00:00,
2013-10-06 22:09:00,63.6,60.9,29.97,WNW,284,0.0,0.0,91,0.00,,,0.00,0,Wunderground v.1.15,2013-10-07 02:09:00,
2013-10-06 22:15:00,63.7,61.0,29.98,WNW,284,0.0,0.0,91,0.00,,,0.00,0,Wunderground v.1.15,2013-10-07 02:15:00,
2013-10-06 22:20:00,63.7,60.7,29.97,WNW,284,0.0,0.0,90,0.00,,,0.00,0,Wunderground v.1.15,2013-10-07 02:20:00,
2013-10-06 22:24:00,63.8,60.8,29.98,WNW,284,0.0,0.0,90,0.00,,,0.00,0,Wunderground v.1.15,2013-10-07 02:24:00,
2013-10-06 22:30:00,63.8,60.8,29.97,WNW,284,0.0,0.0,90,0.00,,,0.00,0,Wunderground v.1.15,2013-10-07 02:30:00,
2013-10-06 22:35:00,63.8,60.8,29.97,WNW,284,0.0,0.0,90,0.00,,,0.00,0,Wunderground v.1.15,2013-10-07 02:35:00,
2013-10-06 22:40:00,63.9,60.9,29.97,WNW,284,0.0,0.0,90,0.00,,,0.00,0,Wunderground v.1.15,2013-10-07 02:40:00,
2013-10-06 22:45:00,63.9,60.9,29.97,WNW,284,0.0,0.0,90,0.00,,,0.00,0,Wunderground v.1.15,2013-10-07 02:45:00,
2013-10-06 22:50:00,63.9,60.9,29.97,WNW,284,0.0,0.0,90,0.00,,,0.00,0,Wunderground v.1.15,2013-10-07 02:50:00,
2013-10-06 22:55:00,64.0,61.0,29.97,WNW,284,0.0,0.0,90,0.00,,,0.00,0,Wunderground v.1.15,2013-10-07 02:55:00,
2013-10-06 23:00:00,64.0,61.0,29.97,WNW,284,0.0,0.0,90,0.00,,,0.00,0,Wunderground v.1.15,2013-10-07 03:00:00,
2013-10-06 23:05:00,64.0,61.0,29.97,WNW,284,0.0,0.0,90,0.00,,,0.00,0,Wunderground v.1.15,2013-10-07 03:05:00,
2013-10-06 23:10:00,64.0,61.0,29.96,WNW,284,0.0,0.0,90,0.00,,,0.00,0,Wunderground v.1.15,2013-10-07 03:10:00,
2013-10-06 23:15:00,64.0,61.0,29.96,WNW,284,0.0,0.0,90,0.00,,,0.00,0,Wunderground v.1.15,2013-10-07 03:15:00,
2013-10-06 23:20:00,64.0,61.0,29.96,WNW,284,0.0,0.0,90,0.00,,,0.00,0,Wunderground v.1.15,2013-10-07 03:20:00,
2013-10-06 23:25:00,64.0,61.0,29.95,WNW,284,0.0,0.0,90,0.00,,,0.00,0,Wunderground v.1.15,2013-10-07 03:25:00,
2013-10-06 23:30:00,64.0,61.0,29.95,WNW,284,0.0,0.0,90,0.00,,,0.00,0,Wunderground v.1.15,2013-10-07 03:30:00,
2013-10-06 23:35:00,64.0,61.0,29.95,WNW,284,0.0,0.0,90,0.00,,,0.00,0,Wunderground v.1.15,2013-10-07 03:35:00,
2013-10-06 23:39:00,64.0,61.0,29.95,WNW,284,0.0,0.0,90,0.00,,,0.00,0,Wunderground v.1.15,2013-10-07 03:39:00,
2013-10-06 23:45:00,63.9,60.9,29.95,WNW,284,0.0,0.0,90,0.00,,,0.00,0,Wunderground v.1.15,2013-10-07 03:45:00,
2013-10-06 23:50:00,63.9,60.9,29.95,WNW,284,0.0,0.0,90,0.00,,,0.00,0,Wunderground v.1.15,2013-10-07 03:50:00,
2013-10-06 23:55:00,64.0,61.3,29.95,WNW,285,0.0,0.0,91,0.00,,,0.00,0,Wunderground v.1.15,2013-10-07 03:55:00,